TimeEST,TemperatureF,Dew PointF,Humidity,Sea Level PressureIn,VisibilityMPH,Wind Direction,Wind SpeedMPH,Gust SpeedMPH,PrecipitationIn,Events,Conditions,WindDirDegrees,DateUTC
12:54 AM,10.9,-9.0,40,30.32,10.0,Calm,Calm,-,N/A,,Clear,0,2014-03-04 05:54:00
1:54 AM,9.0,-5.1,53,30.33,10.0,NW,3.5,-,N/A,,Clear,310,2014-03-04 06:54:00
2:54 AM,9.0,-9.0,44,30.34,10.0,Calm,Calm,-,N/A,,Clear,0,2014-03-04 07:54:00
3:54 AM,9.0,-9.0,44,30.35,10.0,NW,5.8,-,N/A,,Clear,320,2014-03-04 08:54:00
4:54 AM,8.1,-9.0,46,30.36,10.0,WNW,6.9,-,N/A,,Clear,300,2014-03-04 09:54:00
5:54 AM,8.1,-9.9,44,30.35,10.0,North,4.6,-,N/A,,Clear,350,2014-03-04 10:54:00
6:54 AM,7.0,-8.0,51,30.38,10.0,Calm,Calm,-,N/A,,Clear,0,2014-03-04 11:54:00
7:54 AM,10.0,-9.0,42,30.38,10.0,NW,6.9,-,N/A,,Clear,320,2014-03-04 12:54:00
8:54 AM,14.0,-9.0,35,30.39,10.0,NNW,8.1,-,N/A,,Clear,330,2014-03-04 13:54:00
9:54 AM,19.0,-6.0,33,30.40,10.0,SW,3.5,-,N/A,,Clear,230,2014-03-04 14:54:00
10:54 AM,19.9,-2.9,37,30.37,10.0,SW,3.5,-,N/A,,Overcast,220,2014-03-04 15:54:00
11:54 AM,21.9,-7.1,28,30.34,10.0,Variable,4.6,-,N/A,,Clear,0,2014-03-04 16:54:00
12:54 PM,24.1,-6.0,27,30.30,10.0,West,6.9,-,N/A,,Clear,280,2014-03-04 17:54:00
1:54 PM,26.1,-5.1,26,30.29,10.0,WSW,5.8,-,N/A,,Clear,250,2014-03-04 18:54:00
2:54 PM,27.0,-4.0,26,30.27,10.0,WSW,8.1,-,N/A,,Clear,240,2014-03-04 19:54:00
3:54 PM,27.0,-2.9,27,30.27,10.0,SW,8.1,-,N/A,,Overcast,220,2014-03-04 20:54:00
4:54 PM,28.0,-2.0,27,30.26,10.0,SSW,8.1,-,N/A,,Overcast,200,2014-03-04 21:54:00
5:54 PM,28.0,-0.9,29,30.27,10.0,SSW,6.9,-,N/A,,Overcast,210,2014-03-04 22:54:00
6:54 PM,28.0,-0.0,30,30.28,10.0,SSW,4.6,-,0.00,,Overcast,200,2014-03-04 23:54:00
7:54 PM,28.0,-0.0,30,30.28,10.0,SSW,3.5,-,0.00,,Overcast,210,2014-03-05 00:54:00
8:54 PM,28.0,-0.0,30,30.28,10.0,Calm,Calm,-,N/A,,Overcast,0,2014-03-05 01:54:00
9:54 PM,27.0,1.9,34,30.29,10.0,WSW,8.1,-,N/A,,Overcast,240,2014-03-05 02:54:00
10:54 PM,26.1,1.9,35,30.29,10.0,WNW,5.8,-,N/A,,Mostly Cloudy,290,2014-03-05 03:54:00
11:54 PM,26.1,1.9,35,30.27,10.0,NNW,4.6,-,N/A,,Mostly Cloudy,340,2014-03-05 04:54:00